Location: ??????
(38.1303°N, 24.0039°E)
Time: 13:01:11
(UTC+00:00)

ATLAS 5 CENTAUR R/B - Pass Details

Date: 20 June 2021
Orbit: 510 x 1148 km, 63.4° (Epoch: 28 July)

Event Time Altitude Azimuth Distance (km) Brightness Sun altitude
Exits shadow 00:47:52 27° 284° (WNW) 1,059 2.5 -20.0°
Maximum altitude 00:48:51 31° 312° (NW) 989 2.6 -19.9°
Drops below altitude 10° 00:52:39 10° 15° (NNE) 1,935 5.1 -19.4°
Sets 00:55:17 0° 25° (NNE) 2,936 6.6 -19.1°
